Regional Weather Roundup
Issued by NWS

Home | Current Version | Previous Version | Graphics & Text | Print | Product List | Glossary On
Versions: 1 2 3 4 5 6 7 8 9 10 11 12 13 14 15 16 17 18 19 20 21 22 23 24 25 26 27
000
ASUS45 KBOU 251607
RWRCO

WEATHER ROUNDUP FOR COLORADO
NATIONAL WEATHER SERVICE DENVER/BOULDER CO
1000 AM MDT WED MAY 25 2016

NOTE: "FAIR" INDICATES FEW OR NO CLOUDS BELOW 12000 FEET WITH NO
SIGNIFICANT WEATHER AND/OR OBSTRUCTIONS TO VISIBILITY.

COZ001>005-013-030-031-251700-
...NORTHWEST COLORADO...

CITY           SKY/WX    TMP DP  RH WIND       PRES   REMARKS
CRAIG          FAIR      54  37  52 W5        30.07S
HAYDEN         FAIR      54  30  40 W12       30.08R
MEEKER         PTSUNNY   60  26  27 SW13      30.07F
MOUNT WERNER   NOT AVBL
STEAMBOAT SPGS PTSUNNY   51  33  50 W3        30.08S
WALDEN         FAIR      52  21  30 W21G29    30.11S
$$

COZ006>008-011-251700-
...WEST CENTRAL VALLEYS...

CITY           SKY/WX    TMP DP  RH WIND       PRES   REMARKS
GRAND JUNCTION FAIR      63  27  25 VRB5      30.05S
MONTROSE       FAIR      62  19  19 CALM      30.10F
EAGLE          MOSUNNY   61  21  21 SW13G25   30.10F
RIFLE          FAIR      62  30  29 W9        30.06F
DELTA          FAIR      65  24  20 E3        30.08S
NUCLA          FAIR      61  21  21 W9        30.14S
$$

COZ017>023-064>068-251700-
...SOUTHWEST COLORADO...

CITY           SKY/WX    TMP DP  RH WIND       PRES   REMARKS
DURANGO        FAIR      58  22  24 CALM      30.18S
CORTEZ         FAIR      61  20  20 SW7       30.14S
PAGOSA SPRINGS FAIR      54  19  24 CALM      30.22S
TELLURIDE      FAIR      50   3  14 SW13G21   30.23S
WOLF CREEK PAS FAIR      34  12  40 SW21G28   30.36S WCI  22
$$

COZ009-010-012-014-032>034-037-058>063-251700-
...CENTRAL COLORADO...

CITY           SKY/WX    TMP DP  RH WIND       PRES   REMARKS
ASPEN          FAIR      55  11  17 VRB6      30.12S
BUENA VISTA    FAIR      57   6  13 W13G22    30.14S
COPPER MTN     NOT AVBL
BERTHOUD PASS  FAIR      30  21  69 SW17G25   30.27R WCI  18
COTTONWOOD PAS FAIR      50   0  12 SW14G29   30.21R
GUNNISON       FAIR      55  18  22 W9        30.18S
KREMMLING      FAIR      55  23  28 W18G25    30.11S
LEADVILLE      FAIR      46   3  17 W9G21     30.19S
MONARCH PASS   FAIR      32  12  43 W20G26    30.41R WCI  20
SALIDA         FAIR      61  10  13 W10G18    30.21S
SUNLIGHT       PTSUNNY   41  23  48 CALM      30.27S
WILKERSON PASS FAIR      43   7  22 SW12G24   30.28R
$$

COZ069>075-251700-
...SAN LUIS VALLEY/SANGRE DE CRISTO MOUNTAINS...

CITY           SKY/WX    TMP DP  RH WIND       PRES   REMARKS
ALAMOSA        FAIR      58   9  14 S9        30.16S
LA VETA PASS   FAIR      46  10  23 S15G24    30.22S
SAGUACHE       FAIR      55  18  22 SE10      30.17S
$$

COZ035-036-038>040-251700-
...NORTHERN COLORADO FRONT RANGE...

CITY           SKY/WX    TMP DP  RH WIND       PRES   REMARKS
DENVER INTL AP FAIR      60  44  55 SE6       30.03S
DMNS CITY PARK   N/A     63  39  41 NE5G17    30.03F
AURORA         MOSUNNY   61  41  46 VRB3      30.04S
FRONT RANGE AP NOT AVBL
ERIE MUNI ARPT FAIR      61  41  47 SE8       30.02F
BOULDER MUN AP FAIR      61  37  41 SE8       30.02F
CENTENNIAL     FAIR      60  39  45 CALM      30.04R
BROOMFIELD     MOSUNNY   61  41  48 E7        30.05R
FORT COLLINS   FAIR      57  43  58 S10       30.03S
LONGMONT       FAIR      64  41  43 S6        30.04R
$$

COZ041-046-047-076>085-087-088-251700-
...PIKES PEAK/PALMER DIVIDE AND SOUTHERN FOOTHILLS...

CITY           SKY/WX    TMP DP  RH WIND       PRES   REMARKS
COLO. SPRINGS  FAIR      67  21  17 VRB5      30.05S
A. F. ACADEMY  FAIR      64  14  14 W13G29    30.04F
SCHRIEVER AFB  NOT AVBL
ELLICOTT       FAIR     N/A N/A N/A SE6       30.04R
FALCON         FAIR      64  20  19 W7        30.08F
FORT CARSON    FAIR      67  26  21 VRB3      30.02S
LIMON          FAIR      62  50  64 VRB5      30.02S
MONUMENT HILL  FAIR      55  36  47 NE5       30.10R
TRINIDAD       FAIR      70   8   9 VRB5      30.03S
$$

COZ042>045-048>051-090-091-251700-
...NORTHEAST COLORADO...

CITY           SKY/WX    TMP DP  RH WIND       PRES   REMARKS
GREELEY ARPT   FAIR      63  50  63 SE6       30.02S
AKRON          CLOUDY    60  53  77 S9        29.99S
BURLINGTON     CLOUDY    60  53  77 CALM      29.97R
WRAY           CLOUDY    66  52  59 E5        29.96
STERLING       FAIR      63  54  72 SW3       29.97F
HOLYOKE        FAIR      68  52  56 S3        29.97R
FORT MORGAN    PTSUNNY   60  52  73 E6        30.00F
$$

COZ086-089-092>099-251700-
...SOUTHEAST COLORADO...

CITY           SKY/WX    TMP DP  RH WIND       PRES   REMARKS
PUEBLO         FAIR      73  31  21 E7        29.98S
LA JUNTA       FAIR      68  50  52 VRB7      29.97S
LAMAR          FAIR      68  55  63 VRB5      29.94R
SPRINGFIELD      N/A     77  25  14 N9G16     29.96S
$$




USA.gov is the U.S. government's official web portal to all federal, state and local government web resources and services.